�������C�����ː����j�^�v���󋵏��
Date,Time,Cs137(Bq/L),Cs134(Bq/L),�S��(Bq/L)
2016/11/17,00:00,1.2,0.15,ND
2016/11/17,00:10,1.2,0.15,ND
2016/11/17,00:20,1.2,0.16,ND
2016/11/17,00:30,1.2,0.16,ND
2016/11/17,00:40,1.2,0.16,ND
2016/11/17,00:50,1.2,0.15,ND
2016/11/17,01:00,1.2,0.16,ND
2016/11/17,01:10,1.2,0.15,ND
2016/11/17,01:20,1.2,0.15,ND
2016/11/17,01:30,1.2,0.15,ND
2016/11/17,01:40,1.2,0.14,ND
2016/11/17,01:50,1.2,0.14,ND
2016/11/17,02:00,1.2,0.12,ND
2016/11/17,02:10,1.2,0.13,ND
2016/11/17,02:20,1.1,0.12,ND
2016/11/17,02:30,1.1,0.13,ND
2016/11/17,02:40,1.1,0.12,ND
2016/11/17,02:50,1.1,0.12,ND
2016/11/17,03:00,1.1,0.11,ND
2016/11/17,03:10,1.1,0.10,ND
2016/11/17,03:20,1.0,0.11,ND
2016/11/17,03:30,1.0,0.11,ND
2016/11/17,03:40,1.0,0.10,ND
2016/11/17,03:50,1.0,0.095,ND
2016/11/17,04:00,1.0,0.11,ND
2016/11/17,04:10,0.98,0.12,8.8
2016/11/17,04:20,1.0,0.11,ND
2016/11/17,04:30,0.97,0.11,ND
2016/11/17,04:40,0.86,0.14,9.3
2016/11/17,04:50,0.87,0.15,ND
2016/11/17,05:00,0.89,0.14,ND
2016/11/17,05:10,0.90,0.13,ND
2016/11/17,05:20,0.89,0.14,ND
2016/11/17,05:30,0.89,0.14,ND
2016/11/17,05:40,0.92,0.12,ND
2016/11/17,05:50,0.90,0.13,ND
2016/11/17,06:00,0.88,0.13,ND
2016/11/17,06:10,0.88,0.14,ND
2016/11/17,06:20,0.85,0.14,ND
2016/11/17,06:30,0.85,0.14,ND
2016/11/17,06:40,0.84,0.15,ND
2016/11/17,06:50,0.85,0.15,ND
2016/11/17,07:00,1.0,0.091,ND
2016/11/17,07:10,0.97,0.088,ND
2016/11/17,07:20,0.97,0.10,ND
2016/11/17,07:30,0.98,0.091,ND
2016/11/17,07:40,0.98,0.093,ND
2016/11/17,07:50,0.95,0.097,ND
2016/11/17,08:00,0.93,0.11,ND
2016/11/17,08:10,0.97,0.092,ND
2016/11/17,08:20,0.92,0.11,ND
2016/11/17,08:30,0.90,0.12,ND
2016/11/17,08:40,0.90,0.12,ND
2016/11/17,08:50,0.94,0.12,ND
2016/11/17,09:00,0.96,0.12,ND
2016/11/17,09:10,0.95,0.14,ND
2016/11/17,09:20,0.99,0.14,ND
2016/11/17,09:30,1.0,0.13,ND
2016/11/17,09:40,1.0,0.12,ND
2016/11/17,09:50,0.96,0.13,ND
2016/11/17,10:00,1.0,0.11,10
2016/11/17,10:10,1.1,0.11,9.5
2016/11/17,10:20,1.1,0.10,8.9
2016/11/17,10:30,1.1,0.11,11
2016/11/17,10:40,1.1,0.12,ND
2016/11/17,10:50,1.1,0.11,8.9
2016/11/17,11:00,1.1,0.12,ND
2016/11/17,11:10,1.1,0.13,ND
2016/11/17,11:20,1.1,0.13,ND
2016/11/17,11:30,1.1,0.13,ND
2016/11/17,11:40,1.1,0.13,ND
2016/11/17,11:50,1.1,0.13,ND
2016/11/17,12:00,1.1,0.14,ND
2016/11/17,12:10,1.1,0.12,ND
2016/11/17,12:20,1.1,0.12,ND
2016/11/17,12:30,1.1,0.13,ND
2016/11/17,12:40,1.0,0.14,ND
2016/11/17,12:50,1.0,0.14,ND
2016/11/17,13:00,0.98,0.14,ND
2016/11/17,13:10,1.0,0.14,ND
2016/11/17,13:20,0.96,0.15,ND
2016/11/17,13:30,0.99,0.14,ND
2016/11/17,13:40,0.99,0.13,ND
2016/11/17,13:50,1.0,0.13,ND
2016/11/17,14:00,1.0,0.12,ND
2016/11/17,14:10,0.99,0.13,ND
2016/11/17,14:20,0.98,0.14,ND
2016/11/17,14:30,0.96,0.15,ND
2016/11/17,14:40,0.97,0.15,ND
2016/11/17,14:50,0.95,0.15,ND
2016/11/17,15:00,0.97,0.15,ND
2016/11/17,15:10,0.99,0.14,ND
2016/11/17,15:20,0.97,0.13,ND
2016/11/17,15:30,0.97,0.14,ND
2016/11/17,15:40,0.96,0.13,ND
2016/11/17,15:50,0.95,0.14,ND
2016/11/17,16:00,0.95,0.13,ND
2016/11/17,16:10,0.93,0.13,10
2016/11/17,16:20,0.93,0.13,12
2016/11/17,16:30,0.94,0.12,14
2016/11/17,16:40,0.95,0.11,12
2016/11/17,16:50,0.95,0.10,13
2016/11/17,17:00,0.95,0.11,11
2016/11/17,17:10,0.97,0.11,ND
2016/11/17,17:20,0.97,0.10,ND
2016/11/17,17:30,0.96,0.11,ND
2016/11/17,17:40,0.95,0.12,ND
2016/11/17,17:50,0.97,0.12,ND
2016/11/17,18:00,0.96,0.13,ND
2016/11/17,18:10,0.88,0.15,ND
2016/11/17,18:20,1.0,0.14,ND
2016/11/17,18:30,1.0,0.13,ND
2016/11/17,18:40,1.0,0.13,ND
2016/11/17,18:50,0.96,0.14,ND
2016/11/17,19:00,0.98,0.13,ND
2016/11/17,19:10,1.1,0.11,ND
2016/11/17,19:20,1.1,0.11,ND
2016/11/17,19:30,0.99,0.12,ND
2016/11/17,19:40,1.0,0.13,ND
2016/11/17,19:50,1.1,0.11,ND
2016/11/17,20:00,1.1,0.11,ND
2016/11/17,20:10,1.1,0.11,ND
2016/11/17,20:20,1.1,0.11,ND
2016/11/17,20:30,1.1,0.11,ND
2016/11/17,20:40,1.1,0.12,ND
2016/11/17,20:50,1.1,0.12,ND
2016/11/17,21:00,1.1,0.12,ND
2016/11/17,21:10,1.1,0.13,ND
2016/11/17,21:20,1.0,0.15,ND
2016/11/17,21:30,1.0,0.15,ND
2016/11/17,21:40,1.1,0.15,ND
2016/11/17,21:50,1.1,0.16,ND
2016/11/17,22:00,1.2,0.15,ND
2016/11/17,22:10,1.2,0.16,ND
2016/11/17,22:20,1.2,0.15,ND
2016/11/17,22:30,1.2,0.15,ND
2016/11/17,22:40,1.3,0.16,ND
2016/11/17,22:50,1.3,0.17,ND
2016/11/17,23:00,1.3,0.18,ND
2016/11/17,23:10,1.4,0.17,ND
2016/11/17,23:20,1.4,0.17,ND
2016/11/17,23:30,1.4,0.17,ND
2016/11/17,23:40,1.4,0.17,ND
2016/11/17,23:50,1.4,0.16,ND
